TIME,�g��[���C[MJ/h],����[MJ/h],�Ɩ�[MJ/h],�~�[[MJ/h],�①��[MJ/h],��y���[MJ/h],�Ǝ��q��[MJ/h],���̑�[MJ/h],�����G�l���M�[[MJ/h]
2002/12/1 0:00,10.6124,0,0,0.1917,0.2887,0.0657,0.0956,1.0012,0
2002/12/1 0:15,11.3556,0,0,0.2019,0.2688,0.0703,0.1532,1.0102,0
2002/12/1 0:30,11.4365,0,0,0.2089,0.2291,0.0704,0.1027,0.8821,0
2002/12/1 0:45,11.4013,0,0,0.2094,0.3555,0.035,0.1024,0.6297,0
2002/12/1 1:00,11.3941,0,0,0.212,0.1459,0.0246,0.1564,0.5986,0
2002/12/1 1:15,11.4803,0,0,0.3476,0.4402,0.0251,0.1027,0.4696,0
2002/12/1 1:30,11.5674,0,0,0.4081,0.1513,0.0252,0.1028,0.6526,0
2002/12/1 1:45,11.5256,0,0,0.2686,0.411,0.0252,0.1502,0.5877,0
2002/12/1 2:00,11.4883,0,0,0.1636,0.1755,0.0252,0.103,0.3155,0
2002/12/1 2:15,11.4445,0,0,0.2219,0.3292,0.0251,0.1027,0.502,0
2002/12/1 2:30,11.539,0,0,0.2353,0.254,0.0251,0.1529,0.5011,0
2002/12/1 2:45,11.598,0,0,0.2409,0.2527,0.0255,0.1022,0.4836,0
2002/12/1 3:00,11.4569,0,0,0.2373,0.3299,0.0251,0.1512,0.4349,0
2002/12/1 3:15,11.4205,0,0,0.238,0.1659,0.0251,0.1022,0.4694,0
2002/12/1 3:30,11.4584,0,0,0.247,0.419,0.0252,0.102,0.5018,0
2002/12/1 3:45,11.5138,0,0,0.2356,0.1493,0.0251,0.1513,0.5232,0
2002/12/1 4:00,11.4972,0,0,0.2422,0.4264,0.0253,0.102,0.4608,0
2002/12/1 4:15,11.5183,0,0,0.2439,0.1562,0.0253,0.1022,0.3786,0
2002/12/1 4:30,11.5129,0,0,0.2432,0.3437,0.0253,0.1535,0.4769,0
2002/12/1 4:45,11.5082,0,0,0.2318,0.24,0.0253,0.102,0.5219,0
2002/12/1 5:00,11.5104,0,0,0.2411,0.4359,0.0253,0.1024,0.5167,0
2002/12/1 5:15,11.4722,0,0,0.2447,0.4444,0.0252,0.1316,0.3501,0
2002/12/1 5:30,11.4443,0,0,0.2323,0.5967,0.0253,0.0396,0.3182,0
2002/12/1 5:45,4.3492,0,0,0.2455,0.438,0.0251,0.0396,0.4031,0
2002/12/1 6:00,2.9356,0,0,0.2389,0.4457,0.0259,0.0946,0.4461,0
2002/12/1 6:15,11.5201,0,0,0.236,0.4591,0.0253,0.0516,0.5142,0
2002/12/1 6:30,11.392,0,0,0.2416,0.452,0.0252,0.1008,0.4589,0
2002/12/1 6:45,6.5174,0,0,0.2366,0.1876,0.0271,0.0501,0.5733,0
2002/12/1 7:00,1.4819,0,0,0.2363,0.4406,0.0409,0.0504,0.3802,0
2002/12/1 7:15,7.7364,0,0,0.1885,0.1698,0.0253,0.1054,0.2727,0
2002/12/1 7:30,11.5458,0,0,0.1666,0.4375,0.0255,0.0503,0.32,0
2002/12/1 7:45,7.4586,0,0,0.1634,0.163,0.0256,0.0503,0.3041,0
2002/12/1 8:00,0.2912,0,0,0.1856,0.3774,0.0255,0.1011,0.3231,0
2002/12/1 8:15,0,0,0,0.2038,0.2195,0.0256,0.0503,0.3096,0
2002/12/1 8:30,0,0,0,0.213,0.3087,0.0258,0.0503,0.3172,0
2002/12/1 8:45,0,0,0,0.203,0.2847,0.0255,0.0973,0.3385,0
2002/12/1 9:00,0,0,0,0.211,0.2339,0.1475,0.094,0.5309,0
2002/12/1 9:15,0,0,0,0.2009,0.3542,0.4687,0.0517,0.7988,0
2002/12/1 9:30,0.0001,0,0,3.3565,0.1688,0.4556,0.0999,1.1435,0
2002/12/1 9:45,0,0,0,1.4848,0.4121,0.4645,0.0533,2.1482,0
2002/12/1 10:00,0,0,0,0.2062,0.1817,0.4571,0.0534,2.5138,0
2002/12/1 10:15,0,0,0,0.8708,0.4078,0.4346,0.1021,1.8635,0
2002/12/1 10:30,0,0,0,0.1434,0.1653,0.1479,0.0526,1.2295,0
2002/12/1 10:45,0,0,0,0.1377,0.4247,0.0703,0.0953,1.2614,0
2002/12/1 11:00,0,0,0,0.1371,0.1532,0.0708,0.0896,1.1856,0
2002/12/1 11:15,0,0,0,0.144,0.4365,0.0708,0.0429,1.1867,0
2002/12/1 11:30,0,0,0,0.1381,0.1632,0.0708,0.0904,1.6196,0
2002/12/1 11:45,0,0,0,0.1401,0.4196,0.0707,0.0419,1.5765,0
2002/12/1 12:00,0,0,0,0.1339,0.1534,0.0708,0.1128,1.7391,0
2002/12/1 12:15,0,0,0,0.1405,0.4332,0.0708,0.0405,1.0215,0
2002/12/1 12:30,0,0,0,0.1375,0.1555,0.0708,0.1104,1.0428,0
2002/12/1 12:45,0,0,0,0.1367,0.399,0.0258,0.0982,0.5892,0
2002/12/1 13:00,0,0,0,0.1387,0.1908,0.0249,0.0638,0.2565,0
2002/12/1 13:15,0,0,0,0.1367,0.3411,0.0252,0.1145,0.268,0
2002/12/1 13:30,0,0,0,0.1405,0.2452,0.0252,0.0629,0.2745,0
2002/12/1 13:45,0,0,0,0.1381,0.271,0.0252,0.0631,0.2837,0
2002/12/1 14:00,0,0,0,0.1367,0.3158,0.0255,0.1104,0.2732,0
2002/12/1 14:15,0,0,0,0.1433,0.1964,0.0253,0.0524,0.269,0
2002/12/1 14:30,0.0003,0,0,0.1377,0.3888,0.0255,0.0966,0.2765,0
2002/12/1 14:45,0,0,0,0.1375,0.1479,0.0253,0.0492,0.2694,0
2002/12/1 15:00,0,0,0,0.141,0.4317,0.0253,0.0503,0.2799,0
2002/12/1 15:15,0,0,0,0.1355,0.1488,0.0253,0.0907,0.5607,0
2002/12/1 15:30,0,0,0,0.1421,0.3737,0.0253,0.0442,0.6192,0
2002/12/1 15:45,0,0,0,0.1374,0.2023,0.0252,0.1051,0.5918,0
2002/12/1 16:00,0,0,0,0.1434,0.2893,0.0251,0.0566,0.5826,0
2002/12/1 16:15,0,0,0,0.1372,0.283,0.0249,0.0549,0.5772,0
2002/12/1 16:30,0.0003,0,0,0.14,0.2071,0.0255,0.1004,0.6326,0
2002/12/1 16:45,0,0,0,0.1391,0.3668,0.0253,0.0544,0.6349,0
2002/12/1 17:00,0,0,0,0.1404,0.1411,0.0252,0.0985,0.6306,0
2002/12/1 17:15,0,0,0,0.1397,0.4291,0.0252,0.0541,0.6335,0
2002/12/1 17:30,0,0,0,0.1348,0.1441,0.0252,0.054,0.6265,0
2002/12/1 17:45,0,0,0,0.1403,0.3629,0.0251,0.1004,0.6467,0
2002/12/1 18:00,0,0,0,0.138,0.2051,0.0251,0.0439,0.6267,0
2002/12/1 18:15,0,0,0,0.139,0.2759,0.1184,0.0906,0.806,0
2002/12/1 18:30,0,0,0,1.116,0.2897,0.1338,0.0419,1.8012,0
2002/12/1 18:45,0,0,0,2.6248,0.2442,0.0268,0.0435,1.6675,0
2002/12/1 19:00,0,0,0,1.3536,0.3335,0.0408,0.0891,1.7268,0
2002/12/1 19:15,0,0,0,3.872,0.1535,0.0249,0.0432,2.5298,0
2002/12/1 19:30,0,0,0,2.4094,0.4248,0.0253,0.1009,1.7333,0
2002/12/1 19:45,0,0,0,0.3564,0.1708,0.0253,0.0564,1.7499,0
2002/12/1 20:00,0,0,0,0.1704,0.4287,0.0255,0.0557,1.3226,0
2002/12/1 20:15,0,0,0,0.1682,0.1552,0.0255,0.1022,1.3487,0
2002/12/1 20:30,0,0,0,0.1603,0.2906,0.0255,0.055,1.3113,0
2002/12/1 20:45,0,0,0,0.1974,0.2913,0.0255,0.1063,1.4334,0
2002/12/1 21:00,0,0,0,0.2072,0.1578,0.0255,0.0566,1.8419,0
2002/12/1 21:15,0,0,0,0.2118,0.4213,0.0589,0.0564,1.8861,0
2002/12/1 21:30,0,0,0,0.2134,0.15,0.4827,0.0989,1.9757,0
2002/12/1 21:45,0,0,0,0.216,0.2857,0.0338,0.0557,2.0127,0
2002/12/1 22:00,9.2082,0,0,0.2187,0.2861,0.0249,0.1032,1.4844,0
2002/12/1 22:15,11.3675,0,0,0.2127,0.1405,0.0252,0.0641,1.6134,0
2002/12/1 22:30,11.2766,0,0,0.2131,0.4082,0.0249,0.1048,1.5631,0
2002/12/1 22:45,11.2704,0,0,0.2173,0.1662,0.0248,0.1025,1.4655,0
2002/12/1 23:00,11.2105,0,0,1.4574,0.2576,0.0249,0.0563,1.3048,0
2002/12/1 23:15,11.4333,0,0,0.218,0.3126,0.0252,0.0459,1.284,0
2002/12/1 23:30,11.5432,0,0,1.2879,0.1466,0.0533,0.0969,1.3029,0
2002/12/1 23:45,11.5924,0,0,0.9956,0.43,0.3789,0.042,1.0479,0
2002/12/2 0:00,11.3491,0,0,0.1106,0.1568,0.3889,0.0844,1.891,0
2002/12/2 0:15,11.3704,0,0,0.1584,0.2989,0.3826,0.0441,2.228,0
2002/12/2 0:30,11.4646,0,0,0.1957,0.2818,0.3987,0.0899,1.5178,0
2002/12/2 0:45,11.4494,0,0,0.2131,0.3203,0.3803,0.0442,0.8412,0
2002/12/2 1:00,11.4644,0,0,0.2166,0.2583,0.0901,0.0408,0.6621,0
2002/12/2 1:15,11.4022,0,0,0.2197,0.2796,0.0251,0.0927,0.256,0
2002/12/2 1:30,11.5059,0,0,0.2164,0.2968,0.0252,0.0444,0.2396,0
2002/12/2 1:45,11.5884,0,0,0.264,0.213,0.0255,0.0933,0.1968,0
2002/12/2 2:00,11.6474,0,0,0.4095,0.3645,0.0255,0.0445,0.0815,0
2002/12/2 2:15,11.6044,0,0,0.4152,0.1408,0.0255,0.1005,0.0744,0
2002/12/2 2:30,11.6385,0,0,0.2048,0.4376,0.0256,0.0442,0.2544,0
2002/12/2 2:45,11.6611,0,0,0.1809,0.147,0.0255,0.0441,0.2668,0
2002/12/2 3:00,11.4208,0,0,0.2341,0.3848,0.0252,0.0912,0.2399,0
2002/12/2 3:15,11.3756,0,0,0.2413,0.1875,0.0249,0.0439,0.2377,0
2002/12/2 3:30,11.3777,0,0,0.2442,0.2942,0.0252,0.0438,0.2264,0
2002/12/2 3:45,11.3702,0,0,0.2467,0.2766,0.0251,0.0972,0.231,0
2002/12/2 4:00,11.4503,0,0,0.2449,0.4272,0.0252,0.0438,0.2411,0
2002/12/2 4:15,11.4493,0,0,0.2465,0.4608,0.0252,0.0855,0.2385,0
2002/12/2 4:30,11.4376,0,0,0.2481,0.5962,0.0251,0.0438,0.2347,0
2002/12/2 4:45,11.413,0,0,0.2468,0.4136,0.0252,0.0436,0.2415,0
2002/12/2 5:00,11.3855,0,0,0.2498,0.4357,0.0251,0.0914,0.2389,0
2002/12/2 5:15,11.4277,0,0,0.2434,0.4486,0.0253,0.0436,0.2274,0
2002/12/2 5:30,11.3583,0,0,0.2432,0.4451,0.0251,0.0945,0.2347,0
2002/12/2 5:45,11.3047,0,0,0.2514,0.1778,0.0251,0.0436,0.2202,0
2002/12/2 6:00,11.4751,0,0,0.2508,0.4193,0.0253,0.0531,0.2398,0
2002/12/2 6:15,2.1218,0,0,0.2393,0.1714,0.0251,0.1081,0.2768,0
2002/12/2 6:30,4.9782,0,0,0.247,0.3606,0.1057,0.0873,0.2838,0
2002/12/2 6:45,11.4224,0,0,0.4526,0.235,0.4098,1.0918,0.5352,0
2002/12/2 7:00,11.3592,0,0,3.6919,0.4375,0.4144,0.7325,1.0472,0
2002/12/2 7:15,5.7486,0,0,1.1442,0.1492,0.4,0.473,1.0693,0
2002/12/2 7:30,1.4727,0,0,0.8503,0.4329,0.4144,0.7027,0.9419,0
2002/12/2 7:45,8.9385,0,0,0.195,0.1725,0.393,0.056,1.4407,0
2002/12/2 8:00,2.2166,0,0,0.1417,0.4349,0.4036,0.1198,1.2092,0
2002/12/2 8:15,0,0,0,0.143,0.1601,0.3959,0.0675,0.9477,0
2002/12/2 8:30,0,0,0,0.1452,0.4307,0.4527,0.1148,1.1095,0
2002/12/2 8:45,0,0,0,0.1385,0.158,0.4663,0.0605,1.1297,0
2002/12/2 9:00,0,0,0,0.1411,0.3802,0.2159,0.1068,0.7747,0
2002/12/2 9:15,0,0,0,0.1394,0.2078,0.0704,0.0569,0.7112,0
2002/12/2 9:30,0,0,0,0.142,0.3021,0.0704,0.0564,0.7191,0
2002/12/2 9:45,0,0,0,0.1391,0.289,0.0704,0.1074,0.5646,0
2002/12/2 10:00,0,0,0,0.1418,0.217,0.0704,0.0554,0.4121,0
2002/12/2 10:15,0,0,0,0.1408,0.3731,0.0704,0.103,0.3364,0
2002/12/2 10:30,0,0,0,0.1426,0.1545,0.0704,0.0557,0.271,0
2002/12/2 10:45,0,0,0,0.1452,0.4311,0.0706,0.0559,0.2811,0
2002/12/2 11:00,0,0,0,0.1424,0.1541,0.0706,0.109,0.2664,0
2002/12/2 11:15,0,0,0,0.1466,0.3737,0.0706,0.0454,1.439,0
2002/12/2 11:30,0.0003,0,0,0.1408,0.2085,0.0707,0.0446,0.8682,0
2002/12/2 11:45,0,0,0,0.1473,0.2739,0.0671,0.091,0.4745,0
2002/12/2 12:00,0,0,0,0.1411,0.3083,0.0324,0.0516,0.3069,0
2002/12/2 12:15,0,0,0,0.1421,0.176,0.0252,0.106,0.336,0
2002/12/2 12:30,0.0003,0,0,0.1436,0.4074,0.0253,0.0546,0.2844,0
2002/12/2 12:45,0,0,0,0.4229,0.2748,0.2192,0.0543,0.2932,0
2002/12/2 13:00,0,0,0,0.723,0.432,0.364,0.1073,0.2887,0
2002/12/2 13:15,0,0,0,0.141,0.1662,0.3468,0.0541,0.6926,0
2002/12/2 13:30,0,0,0,0.1407,0.3375,0.0253,0.0672,1.1153,0
2002/12/2 13:45,0,0,0,0.144,0.251,0.0252,0.0868,1.2046,0
2002/12/2 14:00,0.0004,0,0,0.1423,0.2436,0.0253,0.0537,0.445,0
2002/12/2 14:15,0,0,0,0.1394,0.3417,0.0252,0.1058,0.4226,0
2002/12/2 14:30,0,0,0,0.1449,0.2053,0.0252,0.0534,0.4825,0
2002/12/2 14:45,0,0,0,0.1405,0.3787,0.0252,0.0534,0.7754,0
2002/12/2 15:00,0,0,0,0.1395,0.1498,0.0249,0.1066,0.9511,0
2002/12/2 15:15,0,0,0,0.1426,0.4353,0.0255,0.0533,1.1228,0
2002/12/2 15:30,0,0,0,0.1395,0.1575,0.0255,0.055,0.986,0
2002/12/2 15:45,0,0,0,0.1392,0.4065,0.0253,0.0992,0.8607,0
2002/12/2 16:00,0,0,0,0.1381,0.181,0.0255,0.0541,1.7564,0
2002/12/2 16:15,0,0,0,0.1417,0.3168,0.0255,0.1063,2.8643,0
2002/12/2 16:30,0,0,0,0.1398,0.2707,0.0252,0.0539,2.019,0
2002/12/2 16:45,0,0,0,0.1423,0.2383,0.0252,0.0534,1.5179,0
2002/12/2 17:00,0,0,0,0.1388,0.3518,0.0253,0.1021,2.4353,0
2002/12/2 17:15,0,0,0,0.1404,0.1516,0.0251,0.0531,2.4633,0
2002/12/2 17:30,0,0,0,0.1381,0.4362,0.0252,0.053,2.2465,0
2002/12/2 17:45,0,0,0,0.1405,0.158,0.0252,0.0969,1.6298,0
2002/12/2 18:00,0,0,0,0.1371,0.3684,0.0253,0.1001,1.6309,0
2002/12/2 18:15,0,0,0,0.1423,0.2184,0.0251,0.0481,1.6331,0
2002/12/2 18:30,0,0,0,0.1367,0.2719,0.0252,0.0924,1.691,0
2002/12/2 18:45,0,0,0,0.1423,0.3155,0.1253,0.0455,1.6134,0
2002/12/2 19:00,0,0,0,1.3274,0.2107,0.4507,0.0841,1.8194,0
2002/12/2 19:15,0,0,0,1.6209,0.433,0.4643,0.2256,1.8276,0
2002/12/2 19:30,0,0,0,0.1413,0.1597,0.4664,0.0549,1.5481,0
2002/12/2 19:45,0,0,0,0.1367,0.3524,0.4666,0.1048,1.3804,0
2002/12/2 20:00,0,0,0,0.14,0.2403,0.4716,0.0544,1.3944,0
2002/12/2 20:15,0,0,0,0.1394,0.2547,0.4562,0.0546,1.3791,0
2002/12/2 20:30,0,0,0,0.1397,0.3381,0.4628,0.1007,1.3483,0
2002/12/2 20:45,0,0,0,0.1385,0.1574,0.4591,0.0537,1.365,0
2002/12/2 21:00,0,0,0,0.1411,0.435,0.3636,0.1051,1.3922,0
2002/12/2 21:15,0.0003,0,0,1.0459,0.1578,0.0704,0.0534,1.615,0
2002/12/2 21:30,0,0,0,0.14,0.3272,0.0701,0.0533,1.4482,0
2002/12/2 21:45,0,0,0,0.1403,0.2609,0.0704,0.1037,1.517,0
2002/12/2 22:00,9.0523,0,0,0.1397,0.1824,0.0701,0.0541,1.5071,0
2002/12/2 22:15,11.2697,0,0,0.14,0.4051,0.0701,0.0539,1.8238,0
2002/12/2 22:30,11.1596,0,0,0.139,0.1584,0.0703,0.1087,1.7202,0
2002/12/2 22:45,11.3066,0,0,0.1418,0.4298,0.0706,0.1162,1.7719,0
2002/12/2 23:00,11.2656,0,0,0.1404,0.1591,0.0707,0.1662,2.5037,0
2002/12/2 23:15,11.2625,0,0,0.143,0.3806,0.0706,0.1073,2.3554,0
2002/12/2 23:30,11.2893,0,0,0.14,0.2062,0.0704,0.105,1.6757,0
2002/12/2 23:45,11.3954,0,0,0.1427,0.3064,0.0706,0.1765,1.3005,0
2002/12/3 0:00,11.5232,0,0,0.1414,0.2844,0.0708,0.1557,1.1504,0
2002/12/3 0:15,11.589,0,0,0.1428,0.2304,0.037,0.1068,1.1061,0
2002/12/3 0:30,11.4556,0,0,0.1384,0.3629,0.0249,0.1066,0.7612,0
2002/12/3 0:45,11.4441,0,0,0.1449,0.1565,0.0251,0.159,0.2956,0
2002/12/3 1:00,11.5262,0,0,0.1418,0.4333,0.0252,0.1071,0.312,0
2002/12/3 1:15,11.5307,0,0,0.1428,0.1585,0.0252,0.1542,0.2994,0
2002/12/3 1:30,11.5675,0,0,0.1397,0.4172,0.0252,0.1066,0.3077,0
2002/12/3 1:45,11.6634,0,0,0.1431,0.1705,0.0253,0.1063,0.2984,0
2002/12/3 2:00,11.6444,0,0,0.1434,0.3341,0.0255,0.1621,0.318,0
2002/12/3 2:15,11.5638,0,0,0.1388,0.2544,0.0252,0.1061,0.3054,0
2002/12/3 2:30,11.4765,0,0,0.1456,0.4296,0.0252,0.106,0.3128,0
2002/12/3 2:45,11.5517,0,0,0.1404,0.4448,0.0252,0.1551,0.3156,0
2002/12/3 3:00,11.4312,0,0,0.1416,0.5957,0.0251,0.106,0.3059,0
2002/12/3 3:15,11.4054,0,0,0.1426,0.4421,0.0252,0.1584,0.3152,0
2002/12/3 3:30,11.4382,0,0,0.1417,0.4297,0.0249,0.106,0.3087,0
2002/12/3 3:45,11.4523,0,0,0.1413,0.4484,0.0252,0.1057,0.3007,0
2002/12/3 4:00,11.466,0,0,0.1414,0.4478,0.0252,0.1512,0.3144,0
2002/12/3 4:15,11.4663,0,0,0.1413,0.247,0.0252,0.106,0.309,0
2002/12/3 4:30,11.4533,0,0,0.1395,0.3754,0.0251,0.106,0.303,0
2002/12/3 4:45,11.4133,0,0,0.1446,0.1647,0.0252,0.1536,0.3076,0
2002/12/3 5:00,11.3865,0,0,0.1418,0.4363,0.0251,0.1058,0.3103,0
2002/12/3 5:15,11.3789,0,0,0.1453,0.1643,0.0252,0.1524,0.2985,0
2002/12/3 5:30,11.2834,0,0,0.1394,0.4257,0.0249,0.1056,0.3226,0
2002/12/3 5:45,11.3417,0,0,0.1437,0.1597,0.0251,0.1535,0.3135,0
2002/12/3 6:00,5.2512,0,0,0.144,0.3802,0.0255,0.0976,0.3565,0
2002/12/3 6:15,1.9708,0,0,0.1424,0.2059,0.0253,0.0559,0.2919,0
2002/12/3 6:30,11.3916,0,0,0.144,0.3,0.0252,0.1022,0.3,0
2002/12/3 6:45,11.2988,0,0,0.1424,0.2796,0.3568,0.0508,0.6,0
2002/12/3 7:00,9.1398,0,0,1.9761,0.2542,0.4072,0.0694,1.0709,0
2002/12/3 7:15,1.5012,0,0,2.2674,0.409,0.3989,0.09,1.0551,0
2002/12/3 7:30,5.9187,0,0,1.282,0.1633,0.3979,0.056,1.0126,0
2002/12/3 7:45,11.4921,0,0,0.1407,0.4284,0.3974,0.1089,1.3658,0
2002/12/3 8:00,2.2421,0,0,0.1404,0.1608,0.4023,0.0724,1.2656,0
2002/12/3 8:15,0.0003,0,0,0.144,0.3717,0.3789,0.0956,1.0164,0
2002/12/3 8:30,0,0,0,1.8258,0.2143,0.3882,0.1093,0.9552,0
2002/12/3 8:45,0,0,0,0.6281,0.2952,0.4164,0.0576,0.9595,0
2002/12/3 9:00,0,0,0,0.1454,0.2889,0.0792,0.0563,0.8852,0
2002/12/3 9:15,0,0,0,0.1427,0.2297,0.25,0.1035,0.7468,0
2002/12/3 9:30,0,0,0,0.1437,0.3571,0.4589,0.0567,0.906,0
2002/12/3 9:45,0,0,0,0.1385,0.1518,0.4627,0.1025,0.8781,0
2002/12/3 10:00,0,0,0,0.1416,0.4393,0.4594,0.0564,0.6795,0
2002/12/3 10:15,0,0,0,0.1483,0.1922,0.4421,0.056,0.5628,0
2002/12/3 10:30,0,0,0,0.1416,0.4015,0.4131,0.0949,0.2748,0
2002/12/3 10:45,0,0,0,0.141,0.1604,0.4035,0.0446,0.2735,0
2002/12/3 11:00,0,0,0,0.143,0.3197,0.3871,0.0919,0.2673,0
2002/12/3 11:15,0,0,0,0.1391,0.2723,0.4487,0.0438,0.2651,0
2002/12/3 11:30,0,0,0,0.1395,0.1836,0.1142,0.0435,0.2683,0
2002/12/3 11:45,0,0,0,0.1365,0.41,0.0521,0.0984,0.2837,0
2002/12/3 12:00,0,0,0,0.1426,0.1627,0.0327,0.0521,0.2632,0
2002/12/3 12:15,0,0,0,0.1385,0.3296,0.0253,0.0547,0.2664,0
2002/12/3 12:30,0,0,0,0.1374,0.2657,0.0253,0.1053,0.2586,0
2002/12/3 12:45,0,0,0,0.8149,0.1917,0.0255,0.0432,0.4923,0
2002/12/3 13:00,0,0,0,0.5468,0.402,0.0253,0.0942,0.578,0
2002/12/3 13:15,0,0,0,1.3861,0.1643,0.0252,0.0422,0.703,0
2002/12/3 13:30,0,0,0,0.4105,0.3378,0.0252,0.042,0.708,0
2002/12/3 13:45,0.0003,0,0,0.3774,0.2624,0.0255,0.0945,0.6255,0
2002/12/3 14:00,0,0,0,0.1577,0.2688,0.0253,0.0418,0.7726,0
2002/12/3 14:15,0,0,0,0.1593,0.345,0.0253,0.0514,0.8044,0
2002/12/3 14:30,0,0,0,0.1682,0.3613,0.0253,0.1076,0.5983,0
2002/12/3 14:45,0,0,0,0.1992,0.2438,0.0253,0.0528,0.5655,0
2002/12/3 15:00,0,0,0,0.2069,0.2002,0.0253,0.0531,0.5803,0
2002/12/3 15:15,0,0,0,0.1983,0.3992,0.0253,0.1287,0.2938,0
2002/12/3 15:30,0,0,0,0.2115,0.1691,0.0252,0.0517,0.5813,0
2002/12/3 15:45,0,0,0,0.2022,0.3715,0.0251,0.1047,0.6996,0
2002/12/3 16:00,0,0,0,0.2111,0.2298,0.0256,0.0518,0.7324,0
2002/12/3 16:15,0,0,0,0.1967,0.2481,0.0253,0.0514,0.8202,0
2002/12/3 16:30,0,0,0,0.2115,0.3544,0.0253,0.1027,1.1442,0
2002/12/3 16:45,0,0,0,0.2046,0.1752,0.0252,0.0513,1.3985,0
2002/12/3 17:00,0,0,0,0.2101,0.4313,0.0253,0.1025,1.6165,0
2002/12/3 17:15,0,0,0,0.2007,0.1809,0.0251,0.0469,1.5378,0
2002/12/3 17:30,0,0,0,0.2094,0.3679,0.0252,0.0513,1.492,0
2002/12/3 17:45,0,0,0,0.2046,0.239,0.0252,0.1066,1.1064,0
2002/12/3 18:00,0.0001,0,0,0.2089,0.2748,0.0253,0.0425,1.1212,0
2002/12/3 18:15,0,0,0,0.2059,0.3292,0.0251,0.0408,1.1125,0
2002/12/3 18:30,0,0,0,0.2118,0.1901,0.0252,0.094,1.13,0
2002/12/3 18:45,0,0,0,0.2239,0.4116,0.0992,0.0501,1.1352,0
2002/12/3 19:00,0,0,0,4.5681,0.1765,0.3993,0.0528,1.3772,0
2002/12/3 19:15,0.0003,0,0,0.554,0.4412,0.0635,0.1056,1.2427,0
2002/12/3 19:30,0,0,0,0.2383,0.4535,0.0252,0.0518,1.0734,0
2002/12/3 19:45,0,0,0,0.4081,0.1943,0.2507,0.0511,1.2063,0
2002/12/3 20:00,0,0,0,0.3191,0.4412,0.4537,0.0998,1.3346,0
2002/12/3 20:15,0,0,0,0.1855,0.1803,0.4615,0.052,1.6285,0
2002/12/3 20:30,0.0003,0,0,0.2434,0.3963,0.467,0.053,1.6292,0
2002/12/3 20:45,0,0,0,0.2418,0.2176,0.4578,0.1581,1.7376,0
2002/12/3 21:00,0,0,0,0.2434,0.3581,0.4167,0.1145,1.5415,0
2002/12/3 21:15,0,0,0,0.2445,0.2533,0.0933,0.1146,1.598,0
2002/12/3 21:30,0,0,0,0.2517,0.2935,0.0907,0.1594,1.4913,0
2002/12/3 21:45,0,0,0,0.2527,0.3165,0.0726,0.1132,1.1081,0
2002/12/3 22:00,9.2403,0,0,0.2503,0.2285,0.3335,0.1617,0.9962,0
2002/12/3 22:15,11.519,0,0,0.252,0.3773,0.4127,0.7708,1.1962,0
2002/12/3 22:30,11.3875,0,0,2.6264,0.161,0.3999,0.8181,1.6799,0
2002/12/3 22:45,11.344,0,0,0.5802,0.4373,0.3918,0.6781,1.5718,0
2002/12/3 23:00,11.3525,0,0,0.1443,0.1653,0.3659,0.2186,1.4482,0
2002/12/3 23:15,11.2972,0,0,0.195,0.4308,0.3613,0.1593,1.4531,0
2002/12/3 23:30,11.2487,0,0,0.2353,0.166,0.3855,0.1142,1.4913,0
2002/12/3 23:45,11.3551,0,0,0.2409,0.36,0.3861,0.2903,1.345,0
2002/12/4 0:00,11.4742,0,0,0.2403,0.2377,0.3869,0.1057,1.084,0
2002/12/4 0:15,11.5597,0,0,0.2477,0.2841,0.383,0.104,1.0858,0
2002/12/4 0:30,11.4034,0,0,0.2449,0.3162,0.2271,0.1531,1.0764,0
2002/12/4 0:45,11.4399,0,0,0.2366,0.4353,0.0252,0.103,0.2951,0
2002/12/4 1:00,11.536,0,0,0.2432,0.453,0.0252,0.1513,0.2998,0
2002/12/4 1:15,11.4847,0,0,0.2411,0.597,0.0252,0.1032,0.3073,0
2002/12/4 1:30,11.575,0,0,0.2411,0.4398,0.0253,0.1032,0.2992,0
2002/12/4 1:45,11.6405,0,0,0.1711,0.4416,0.0255,0.1498,0.3185,0
2002/12/4 2:00,11.5829,0,0,0.162,0.4602,0.0253,0.1032,0.3348,0
2002/12/4 2:15,11.634,0,0,0.1862,0.4582,0.0253,0.1519,0.3342,0
2002/12/4 2:30,11.6578,0,0,0.2053,0.3482,0.0256,0.1034,0.3021,0
2002/12/4 2:45,11.5622,0,0,0.2118,0.2981,0.0252,0.1032,0.3061,0
2002/12/4 3:00,11.4627,0,0,0.2051,0.2572,0.0251,0.1467,0.3541,0
2002/12/4 3:15,11.5806,0,0,0.2074,0.3636,0.0255,0.104,0.3005,0
2002/12/4 3:30,11.6077,0,0,0.214,0.1909,0.0253,0.1539,0.3083,0
2002/12/4 3:45,11.5811,0,0,0.2177,0.4228,0.0253,0.1037,0.3191,0
2002/12/4 4:00,11.5625,0,0,0.2061,0.1716,0.0253,0.0979,0.3064,0
2002/12/4 4:15,11.5448,0,0,0.2174,0.4353,0.0253,0.0891,0.3116,0
2002/12/4 4:30,11.5356,0,0,0.2049,0.1679,0.0253,0.0408,0.2955,0
2002/12/4 4:45,4.0507,0,0,0.2169,0.3924,0.0253,0.0409,0.3095,0
2002/12/4 5:00,2.8084,0,0,0.2123,0.2074,0.0253,0.0926,0.4932,0
2002/12/4 5:15,11.4087,0,0,0.2061,0.3064,0.0252,0.0408,0.3102,0
2002/12/4 5:30,11.3404,0,0,0.21,0.2881,0.0248,0.0927,0.29,0
2002/12/4 5:45,5.8363,0,0,0.2157,0.2206,0.0251,0.0406,0.2994,0
2002/12/4 6:00,1.4966,0,0,0.2076,0.3757,0.0256,0.05,0.2982,0
2002/12/4 6:15,7.4141,0,0,0.2186,0.1597,0.0252,0.1002,0.2366,0
2002/12/4 6:30,11.4392,0,0,0.2075,0.4319,0.0251,0.0516,0.3034,0
2002/12/4 6:45,6.5622,0,0,0.2097,0.1603,0.0266,0.0513,0.2909,0
2002/12/4 7:00,1.4694,0,0,0.7625,0.378,0.4059,0.0978,0.5633,0
2002/12/4 7:15,4.6129,0,0,1.9601,0.2118,0.3967,0.0521,1.0571,0
2002/12/4 7:30,11.3547,0,0,0.139,0.3545,0.4071,0.0524,1.0944,0
2002/12/4 7:45,7.7685,0,0,0.143,0.252,0.3851,0.1669,1.5935,0
2002/12/4 8:00,0.2917,0,0,0.1369,0.2714,0.3973,0.0504,1.1827,0
2002/12/4 8:15,0,0,0,0.14,0.3312,0.4261,0.0995,1.1186,0
2002/12/4 8:30,0,0,0,0.1394,0.1976,0.428,0.0544,1.1494,0
2002/12/4 8:45,0,0,0,0.1403,0.3979,0.4719,0.0546,1.1061,0
2002/12/4 9:00,0.0003,0,0,0.1382,0.1621,0.1364,0.1041,0.4797,0
2002/12/4 9:15,0,0,0,0.1404,0.4313,0.0703,0.0544,0.408,0
2002/12/4 9:30,0.0003,0,0,0.1397,0.161,0.0704,0.1048,0.4065,0
2002/12/4 9:45,0,0,0,0.1404,0.3645,0.0703,0.0541,0.4241,0
2002/12/4 10:00,0,0,0,0.1369,0.2245,0.0703,0.0534,0.3999,0
2002/12/4 10:15,0,0,0,0.1401,0.2735,0.0703,0.1063,0.4114,0
2002/12/4 10:30,0,0,0,0.139,0.3139,0.0704,0.0433,0.4166,0
2002/12/4 10:45,0,0,0,0.1372,0.1822,0.0703,0.0422,0.4128,0
2002/12/4 11:00,0,0,0,0.1387,0.4044,0.0703,0.0857,0.4059,0
2002/12/4 11:15,0,0,0,0.1397,0.1562,0.0701,0.0511,0.4069,0
2002/12/4 11:30,0,0,0,0.1381,0.4198,0.0703,0.1045,0.4234,0
2002/12/4 11:45,0,0,0,0.1413,0.1634,0.07,0.0528,0.4084,0
2002/12/4 12:00,0,0,0,0.1392,0.3286,0.0704,0.0526,0.414,0
2002/12/4 12:15,0,0,0,0.138,0.2544,0.0354,0.1032,0.5105,0
2002/12/4 12:30,0,0,0,0.1367,0.2366,0.0251,0.0526,0.8067,0
2002/12/4 12:45,0,0,0,0.1387,0.3478,0.0252,0.0534,1.0555,0
2002/12/4 13:00,0,0,0,1.2396,0.1691,0.0251,0.1024,0.9976,0
2002/12/4 13:15,0,0,0,0.1368,0.4215,0.0252,0.0528,0.7664,0
2002/12/4 13:30,0,0,0,0.1401,0.1617,0.4644,0.1007,0.7881,0
2002/12/4 13:45,0,0,0,0.138,0.4297,0.4491,0.0418,0.7527,0
2002/12/4 14:00,0,0,0,0.1367,0.1567,0.4624,0.0416,0.5871,0
2002/12/4 14:15,0,0,0,0.1424,0.3496,0.1758,0.1041,0.5964,0
2002/12/4 14:30,0,0,0,0.1397,0.2316,0.0707,0.054,0.7664,0
2002/12/4 14:45,0,0,0,0.1387,0.266,0.0707,0.051,0.822,0
2002/12/4 15:00,0,0,0,0.1397,0.3192,0.071,0.096,0.7874,0
2002/12/4 15:15,0,0,0,0.1423,0.1715,0.0707,0.053,0.7559,0
2002/12/4 15:30,0,0,0,0.1359,0.4094,0.0708,0.0534,0.7478,0
2002/12/4 15:45,0,0,0,0.1433,0.1521,0.0707,0.0945,0.8977,0
2002/12/4 16:00,0,0,0,0.1421,0.4097,0.0707,0.0425,0.7668,0
2002/12/4 16:15,0,0,0,0.1372,0.1698,0.071,0.0425,0.7978,0
2002/12/4 16:30,0,0,0,0.1443,0.3145,0.0706,0.0969,0.812,0
2002/12/4 16:45,0,0,0,0.1411,0.2634,0.0708,0.0543,0.9681,0
2002/12/4 17:00,0,0,0,0.1372,0.2393,0.0706,0.1043,1.3864,0
2002/12/4 17:15,0,0,0,0.1418,0.3381,0.0706,0.053,1.2318,0
2002/12/4 17:30,0,0,0,0.138,0.15,0.0704,0.053,1.2231,0
2002/12/4 17:45,0,0,0,1.6872,0.4265,0.0703,0.0998,1.3081,0
2002/12/4 18:00,0,0,0,3.4921,0.1485,0.0706,0.0527,1.2574,0
2002/12/4 18:15,0,0,0,0.924,0.4297,0.0704,0.1037,1.2406,0
2002/12/4 18:30,0,0,0,2.3522,0.1525,0.0706,0.0534,1.1532,0
2002/12/4 18:45,0,0,0,0.1989,0.3878,0.1446,0.0543,0.9916,0
2002/12/4 19:00,0,0,0,0.4992,0.1918,0.3852,0.103,0.9976,0
2002/12/4 19:15,0,0,0,0.1351,0.3023,0.3087,0.0543,1.1583,0
2002/12/4 19:30,0,0,0,0.1388,0.2759,0.4128,0.0541,1.2599,0
2002/12/4 19:45,0,0,0,0.1367,0.212,0.4156,0.1081,1.2519,0
2002/12/4 20:00,0,0,0,0.14,0.3652,0.3439,0.1339,1.49,0
2002/12/4 20:15,0,0,0,0.1378,0.1485,0.071,0.2844,1.831,0
2002/12/4 20:30,0,0,0,0.1365,0.4294,0.0708,0.1544,1.9891,0
2002/12/4 20:45,0,0,0,0.1381,0.1502,0.0708,0.0942,1.9148,0
2002/12/4 21:00,0,0,0,0.1374,0.3385,0.0707,0.1037,1.8105,0
2002/12/4 21:15,0,0,0,0.1423,0.2363,0.0707,0.0569,1.9341,0
2002/12/4 21:30,0,0,0,0.1356,0.237,0.0704,0.0562,1.7604,0
2002/12/4 21:45,0,0,0,0.1397,0.3336,0.0706,0.1041,1.5689,0
2002/12/4 22:00,8.9698,0,0,0.139,0.143,0.0706,0.0554,1.6242,0
2002/12/4 22:15,11.2736,0,0,0.3816,0.4257,0.0706,0.8856,1.425,0
2002/12/4 22:30,11.1865,0,0,0.141,0.1472,0.0704,0.5154,1.5568,0
2002/12/4 22:45,11.3689,0,0,0.1388,0.3011,0.0708,0.7199,1.7196,0
2002/12/4 23:00,11.2421,0,0,0.1456,0.269,0.0704,0.8011,1.6435,0
2002/12/4 23:15,11.212,0,0,0.1407,0.4225,0.1896,0.1168,1.6321,0
2002/12/4 23:30,11.2519,0,0,0.1391,0.4602,0.3951,0.1708,1.6723,0
2002/12/4 23:45,11.3383,0,0,0.1414,0.5904,0.3902,0.1175,1.4021,0
2002/12/5 0:00,11.4604,0,0,0.1434,0.413,0.3999,0.1621,1.0688,0
2002/12/5 0:15,11.4719,0,0,0.1394,0.4326,0.0252,0.1057,0.829,0
2002/12/5 0:30,11.2755,0,0,0.1443,0.4457,0.0248,0.1058,0.8055,0